Previsão horária em Abaújszántó

Hoje, 27 Janeiro, Quarta-feira

Tempo Temperatura Precipitação Vento Pressão Humidade
00:00 -3°C° 0 mm 1 m/s 741 mmHg 88%
01:00 -3°C° 0 mm 1 m/s 741 mmHg 88%
02:00 -3°C° 0 mm 1 m/s 741 mmHg 88%
03:00 -3°C° 0 mm 1 m/s 741 mmHg 87%
04:00 -3°C° 0 mm 1 m/s 740 mmHg 86%
05:00 -3°C° 0 mm 1 m/s 740 mmHg 85%
06:00 -3°C° 0 mm 1 m/s 740 mmHg 85%
07:00 -3°C° 0 mm 1 m/s 740 mmHg 83%
08:00 -2°C° 0 mm 1 m/s 740 mmHg 80%
09:00 -1°C° 0 mm 1 m/s 740 mmHg 76%
10:00 0°C° 0 mm 1 m/s 740 mmHg 72%
11:00 0°C° 0 mm 1 m/s 740 mmHg 71%
12:00 +1°C° 0 mm 1 m/s 740 mmHg 70%
13:00 +1°C° 0 mm 2 m/s 740 mmHg 69%
14:00 +1°C° 0 mm 1 m/s 740 mmHg 72%
15:00 +1°C° 0 mm 1 m/s 740 mmHg 75%
16:00 0°C° 0 mm 1 m/s 740 mmHg 78%
17:00 0°C° 0 mm 1 m/s 740 mmHg 79%
18:00 -1°C° 0 mm 1 m/s 740 mmHg 80%
19:00 -1°C° 0 mm 1 m/s 740 mmHg 81%
20:00 -2°C° 0 mm 1 m/s 740 mmHg 81%
21:00 -2°C° 0 mm 1 m/s 740 mmHg 81%
22:00 -2°C° 0 mm 1 m/s 740 mmHg 81%
23:00 -2°C° 0 mm 1 m/s 740 mmHg 81%

Amanhã, 28 Janeiro, Quinta-feira

Tempo Temperatura Precipitação Vento Pressão Humidade
00:00 -2°C° 0 mm 1 m/s 740 mmHg 80%
01:00 -2°C° 0 mm 1 m/s 740 mmHg 80%
02:00 -2°C° 0 mm 1 m/s 740 mmHg 80%
03:00 -3°C° 0 mm 1 m/s 740 mmHg 80%
04:00 -3°C° 0 mm 1 m/s 740 mmHg 80%
05:00 -3°C° 0 mm 1 m/s 740 mmHg 80%
06:00 -3°C° 0 mm 1 m/s 739 mmHg 80%
07:00 -3°C° 0 mm 1 m/s 739 mmHg 80%
08:00 -2°C° 0 mm 1 m/s 739 mmHg 77%
09:00 -2°C° 0 mm 1 m/s 739 mmHg 74%
10:00 -1°C° 0 mm 1 m/s 739 mmHg 71%
11:00 0°C° 0 mm 1 m/s 739 mmHg 69%
12:00 0°C° 0 mm 1 m/s 738 mmHg 68%
13:00 +1°C° 0 mm 1 m/s 738 mmHg 66%
14:00 +1°C° 0 mm 1 m/s 737 mmHg 71%
15:00 0°C° 0 mm 1 m/s 737 mmHg 75%
16:00 0°C° 0 mm 1 m/s 737 mmHg 80%
17:00 0°C° 0 mm 1 m/s 737 mmHg 82%
18:00 0°C° 0 mm 1 m/s 737 mmHg 85%
19:00 0°C° 0 mm 1 m/s 736 mmHg 88%
20:00 -2°C° 0 mm 2 m/s 736 mmHg 89%
21:00 -2°C° 0 mm 2 m/s 736 mmHg 91%
22:00 -2°C° 0 mm 2 m/s 735 mmHg 92%
23:00 -2°C° 0.1 mm 2 m/s 735 mmHg 91%

Depois de amanhã, 29 Janeiro, Sexta-feira

Tempo Temperatura Precipitação Vento Pressão Humidade
00:00 -2°C° 0.1 mm 2 m/s 735 mmHg 91%
01:00 -2°C° 0.1 mm 2 m/s 734 mmHg 90%
02:00 -2°C° 0.3 mm 2 m/s 734 mmHg 93%
03:00 -2°C° 0.3 mm 2 m/s 733 mmHg 95%
04:00 -2°C° 0.3 mm 2 m/s 733 mmHg 97%
05:00 -2°C° 0.2 mm 2 m/s 732 mmHg 97%
06:00 0°C° 0.2 mm 1 m/s 732 mmHg 97%
07:00 0°C° 0.2 mm 1 m/s 732 mmHg 97%
08:00 +1°C° 0 mm 1 m/s 732 mmHg 96%
09:00 +1°C° 0 mm 1 m/s 733 mmHg 95%
10:00 +1°C° 0 mm 1 m/s 733 mmHg 93%
11:00 +2°C° 0 mm 1 m/s 733 mmHg 92%
12:00 +2°C° 0 mm 1 m/s 732 mmHg 91%
13:00 +2°C° 0 mm 1 m/s 732 mmHg 90%
14:00 +2°C° 0 mm 1 m/s 731 mmHg 91%
15:00 +2°C° 0 mm 1 m/s 731 mmHg 93%
16:00 +2°C° 0 mm 1 m/s 730 mmHg 94%
17:00 +2°C° 0.6 mm 1 m/s 730 mmHg 95%
18:00 +1°C° 0.6 mm 2 m/s 729 mmHg 97%
19:00 +1°C° 0.6 mm 2 m/s 729 mmHg 98%
20:00 +1°C° 0.5 mm 2 m/s 728 mmHg 98%
21:00 +1°C° 0.5 mm 3 m/s 727 mmHg 98%
22:00 +1°C° 0.5 mm 3 m/s 727 mmHg 98%
23:00 +1°C° 0.1 mm 3 m/s 727 mmHg 97%

30 Janeiro, Sábado

Tempo Temperatura Precipitação Vento Pressão Humidade
00:00 +1°C° 0.1 mm 3 m/s 726 mmHg 97%
01:00 +1°C° 0.1 mm 3 m/s 726 mmHg 96%
02:00 +1°C° 0 mm 3 m/s 726 mmHg 94%
03:00 +1°C° 0 mm 3 m/s 726 mmHg 92%
04:00 +1°C° 0 mm 3 m/s 726 mmHg 90%
05:00 +1°C° 0 mm 2 m/s 727 mmHg 90%
06:00 +1°C° 0 mm 2 m/s 727 mmHg 90%
07:00 +2°C° 0 mm 1 m/s 728 mmHg 90%
08:00 +1°C° 0 mm 2 m/s 728 mmHg 89%
09:00 +1°C° 0 mm 2 m/s 729 mmHg 89%
10:00 +1°C° 0 mm 2 m/s 729 mmHg 88%
11:00 +1°C° 0.2 mm 2 m/s 729 mmHg 90%
12:00 -1°C° 0.2 mm 2 m/s 729 mmHg 92%
13:00 -1°C° 0.2 mm 3 m/s 730 mmHg 93%
14:00 -2°C° 0.5 mm 3 m/s 730 mmHg 93%
15:00 -2°C° 0.5 mm 3 m/s 730 mmHg 93%
16:00 -2°C° 0.5 mm 3 m/s 730 mmHg 93%
17:00 -2°C° 0 mm 3 m/s 730 mmHg 93%
18:00 -2°C° 0 mm 2 m/s 731 mmHg 92%
19:00 0°C° 0 mm 1 m/s 732 mmHg 91%
20:00 -1°C° 0 mm 1 m/s 732 mmHg 90%
21:00 -2°C° 0 mm 1 m/s 733 mmHg 88%
22:00 -4°C° 0 mm 2 m/s 733 mmHg 87%
23:00 -4°C° 0 mm 2 m/s 733 mmHg 86%

31 Janeiro, Domingo

Tempo Temperatura Precipitação Vento Pressão Humidade
00:00 -5°C° 0 mm 2 m/s 733 mmHg 85%
01:00 -5°C° 0 mm 2 m/s 733 mmHg 84%
02:00 -5°C° 0 mm 2 m/s 734 mmHg 83%
03:00 -5°C° 0 mm 2 m/s 734 mmHg 82%
04:00 -5°C° 0 mm 2 m/s 734 mmHg 81%
05:00 -6°C° 0 mm 2 m/s 734 mmHg 82%
06:00 -6°C° 0 mm 2 m/s 734 mmHg 82%
07:00 -6°C° 0 mm 2 m/s 735 mmHg 82%
08:00 -5°C° 0 mm 2 m/s 735 mmHg 80%
09:00 -4°C° 0 mm 2 m/s 735 mmHg 77%
10:00 -5°C° 0 mm 3 m/s 735 mmHg 75%
11:00 -4°C° 0 mm 3 m/s 735 mmHg 72%
12:00 -4°C° 0 mm 3 m/s 735 mmHg 70%
13:00 -2°C° 0 mm 3 m/s 735 mmHg 68%
14:00 -2°C° 0 mm 3 m/s 734 mmHg 69%
15:00 -4°C° 0 mm 3 m/s 734 mmHg 71%
16:00 -3°C° 0 mm 2 m/s 734 mmHg 73%
17:00 -5°C° 0 mm 3 m/s 734 mmHg 72%
18:00 -5°C° 0 mm 3 m/s 735 mmHg 72%
19:00 -5°C° 0 mm 3 m/s 735 mmHg 71%
20:00 -6°C° 0 mm 3 m/s 735 mmHg 71%
21:00 -6°C° 0 mm 3 m/s 735 mmHg 71%
22:00 -6°C° 0 mm 3 m/s 735 mmHg 71%
23:00 -6°C° 0 mm 3 m/s 735 mmHg 71%

1 Fevereiro, Segunda-feira

Tempo Temperatura Precipitação Vento Pressão Humidade
00:00 -6°C° 0 mm 3 m/s 734 mmHg 71%
01:00 -7°C° 0 mm 3 m/s 734 mmHg 71%
02:00 -7°C° 0 mm 3 m/s 734 mmHg 70%
03:00 -7°C° 0 mm 3 m/s 735 mmHg 70%
04:00 -7°C° 0 mm 3 m/s 735 mmHg 69%
05:00 -7°C° 0 mm 3 m/s 735 mmHg 69%
06:00 -6°C° 0 mm 2 m/s 736 mmHg 70%
07:00 -6°C° 0 mm 2 m/s 736 mmHg 70%
08:00 -3°C° 0 mm 1 m/s 736 mmHg 67%
09:00 -2°C° 0 mm 1 m/s 737 mmHg 63%
10:00 -1°C° 0 mm 1 m/s 737 mmHg 60%
11:00 -1°C° 0 mm 1 m/s 737 mmHg 58%
12:00 0°C° 0 mm 1 m/s 738 mmHg 57%
13:00 0°C° 0 mm 0 m/s 738 mmHg 55%
14:00 0°C° 0 mm 1 m/s 738 mmHg 60%
15:00 -1°C° 0 mm 1 m/s 738 mmHg 64%
16:00 -1°C° 0 mm 1 m/s 739 mmHg 68%
17:00 -2°C° 0 mm 1 m/s 739 mmHg 70%
18:00 -2°C° 0 mm 1 m/s 740 mmHg 72%
19:00 -3°C° 0 mm 1 m/s 740 mmHg 74%
20:00 -3°C° 0 mm 1 m/s 740 mmHg 74%
21:00 -3°C° 0 mm 1 m/s 741 mmHg 75%
22:00 -3°C° 0 mm 1 m/s 741 mmHg 75%
23:00 -3°C° 0 mm 1 m/s 741 mmHg 75%
Mostrar mais